When you browse on this site, cookies collect data to enhance your experience and personalize the content and advertising you see.
Visit our Privacy Policy to learn more. By continuing to use the site, you agree to this use of cookies and data.
  • In Austria
  • List of Countries
  • For 7 days
  • Water Temperature
  • Weather Map
  • News
  • Weather Widgets
  • user-avatar
    Login

    Hourly Weather Tepepa

    Today, 23 November, Saturday

    Time Temperature Precipitation Wind Pressure Humidity
    00:00 +10°C° 0 mm 0 mps 584 mmHg 61%
    01:00 +10°C° 0 mm 0 mps 583 mmHg 60%
    02:00 +10°C° 0 mm 0 mps 583 mmHg 59%
    03:00 +11°C° 0 mm 1 mps 583 mmHg 58%
    04:00 +10°C° 0 mm 1 mps 583 mmHg 56%
    05:00 +10°C° 0 mm 1 mps 583 mmHg 55%
    06:00 +12°C° 0 mm 1 mps 585 mmHg 52%
    07:00 +13°C° 0 mm 0 mps 586 mmHg 49%
    08:00 +15°C° 0 mm 0 mps 588 mmHg 47%
    09:00 +18°C° 0 mm 1 mps 588 mmHg 47%
    10:00 +20°C° 0 mm 1 mps 588 mmHg 47%
    11:00 +20°C° 0 mm 2 mps 588 mmHg 47%
    12:00 +19°C° 0 mm 2 mps 588 mmHg 54%
    13:00 +19°C° 0 mm 2 mps 587 mmHg 60%
    14:00 +19°C° 0 mm 2 mps 586 mmHg 66%
    15:00 +17°C° 0 mm 2 mps 586 mmHg 76%
    16:00 +15°C° 0 mm 2 mps 585 mmHg 86%
    17:00 +14°C° 0 mm 1 mps 585 mmHg 96%
    18:00 +13°C° 0.1 mm 1 mps 585 mmHg 96%
    19:00 +13°C° 0.1 mm 1 mps 585 mmHg 96%
    20:00 +11°C° 0.1 mm 0 mps 586 mmHg 96%
    21:00 +11°C° 0.1 mm 0 mps 586 mmHg 95%
    22:00 +11°C° 0.1 mm 0 mps 586 mmHg 94%
    23:00 +11°C° 0.1 mm 1 mps 585 mmHg 93%

    Tomorrow, 24 November, Sunday

    Time Temperature Precipitation Wind Pressure Humidity
    00:00 +10°C° 0.1 mm 0 mps 585 mmHg 92%
    01:00 +10°C° 0.1 mm 0 mps 585 mmHg 92%
    02:00 +10°C° 0.1 mm 0 mps 585 mmHg 91%
    03:00 +9°C° 0.1 mm 0 mps 584 mmHg 91%
    04:00 +9°C° 0.1 mm 0 mps 584 mmHg 91%
    05:00 +9°C° 0.1 mm 0 mps 584 mmHg 92%
    06:00 +10°C° 0.1 mm 0 mps 585 mmHg 88%
    07:00 +12°C° 0.1 mm 1 mps 586 mmHg 85%
    08:00 +14°C° 0.1 mm 1 mps 587 mmHg 81%
    09:00 +15°C° 0 mm 1 mps 587 mmHg 76%
    10:00 +16°C° 0 mm 1 mps 588 mmHg 70%
    11:00 +19°C° 0 mm 1 mps 588 mmHg 64%
    12:00 +18°C° 0 mm 2 mps 587 mmHg 66%
    13:00 +18°C° 0 mm 2 mps 586 mmHg 68%
    14:00 +18°C° 0 mm 2 mps 586 mmHg 70%
    15:00 +16°C° 0 mm 2 mps 585 mmHg 79%
    16:00 +15°C° 0 mm 1 mps 585 mmHg 87%
    17:00 +13°C° 0 mm 1 mps 584 mmHg 96%
    18:00 +13°C° 0 mm 1 mps 584 mmHg 95%
    19:00 +13°C° 0 mm 1 mps 585 mmHg 94%
    20:00 +13°C° 0 mm 1 mps 585 mmHg 94%
    21:00 +12°C° 0 mm 1 mps 585 mmHg 93%
    22:00 +12°C° 0 mm 1 mps 584 mmHg 92%
    23:00 +12°C° 0 mm 1 mps 584 mmHg 91%

    Day after tomorrow, 25 November, Monday

    Time Temperature Precipitation Wind Pressure Humidity
    00:00 +12°C° 0 mm 1 mps 583 mmHg 89%
    01:00 +12°C° 0 mm 1 mps 583 mmHg 87%
    02:00 +12°C° 0 mm 2 mps 583 mmHg 85%
    03:00 +12°C° 0 mm 2 mps 582 mmHg 82%
    04:00 +12°C° 0 mm 2 mps 582 mmHg 80%
    05:00 +10°C° 0 mm 2 mps 582 mmHg 78%
    06:00 +14°C° 0 mm 1 mps 584 mmHg 71%
    07:00 +16°C° 0 mm 1 mps 585 mmHg 64%
    08:00 +19°C° 0 mm 1 mps 586 mmHg 57%
    09:00 +20°C° 0 mm 1 mps 586 mmHg 53%
    10:00 +21°C° 0 mm 1 mps 586 mmHg 49%
    11:00 +23°C° 0 mm 2 mps 587 mmHg 45%
    12:00 +23°C° 0 mm 2 mps 586 mmHg 49%
    13:00 +21°C° 0 mm 2 mps 585 mmHg 53%
    14:00 +21°C° 0 mm 2 mps 585 mmHg 57%
    15:00 +19°C° 0 mm 2 mps 584 mmHg 66%
    16:00 +18°C° 0 mm 1 mps 583 mmHg 76%
    17:00 +14°C° 0 mm 0 mps 582 mmHg 86%
    18:00 +15°C° 0 mm 1 mps 582 mmHg 80%
    19:00 +14°C° 0 mm 1 mps 583 mmHg 74%
    20:00 +14°C° 0 mm 1 mps 583 mmHg 68%
    21:00 +14°C° 0 mm 1 mps 583 mmHg 66%
    22:00 +14°C° 0 mm 2 mps 583 mmHg 64%
    23:00 +13°C° 0 mm 2 mps 583 mmHg 62%

    26 November, Tuesday

    Time Temperature Precipitation Wind Pressure Humidity
    00:00 +13°C° 0 mm 2 mps 582 mmHg 64%
    01:00 +13°C° 0 mm 2 mps 582 mmHg 67%
    02:00 +13°C° 0 mm 2 mps 582 mmHg 69%
    03:00 +13°C° 0 mm 2 mps 582 mmHg 70%
    04:00 +13°C° 0 mm 2 mps 582 mmHg 71%
    05:00 +13°C° 0 mm 2 mps 582 mmHg 71%
    06:00 +15°C° 0 mm 2 mps 583 mmHg 66%
    07:00 +18°C° 0 mm 1 mps 584 mmHg 61%
    08:00 +20°C° 0 mm 1 mps 585 mmHg 55%
    09:00 +21°C° 0 mm 1 mps 586 mmHg 51%
    10:00 +23°C° 0 mm 1 mps 586 mmHg 47%
    11:00 +24°C° 0 mm 1 mps 586 mmHg 44%
    12:00 +24°C° 0 mm 2 mps 586 mmHg 47%
    13:00 +23°C° 0 mm 2 mps 585 mmHg 51%
    14:00 +23°C° 0 mm 2 mps 584 mmHg 54%
    15:00 +21°C° 0.1 mm 1 mps 583 mmHg 64%
    16:00 +19°C° 0.1 mm 1 mps 583 mmHg 74%
    17:00 +15°C° 0.1 mm 0 mps 582 mmHg 84%
    18:00 +15°C° 0 mm 1 mps 583 mmHg 80%
    19:00 +15°C° 0 mm 1 mps 583 mmHg 77%
    20:00 +15°C° 0 mm 2 mps 583 mmHg 73%
    21:00 +14°C° 0 mm 2 mps 583 mmHg 73%
    22:00 +14°C° 0 mm 2 mps 583 mmHg 72%
    23:00 +14°C° 0 mm 2 mps 583 mmHg 72%

    27 November, Wednesday

    Time Temperature Precipitation Wind Pressure Humidity
    00:00 +13°C° 0 mm 2 mps 583 mmHg 73%
    01:00 +13°C° 0 mm 2 mps 583 mmHg 73%
    02:00 +13°C° 0 mm 2 mps 583 mmHg 73%
    03:00 +13°C° 0 mm 2 mps 583 mmHg 73%
    04:00 +12°C° 0 mm 2 mps 583 mmHg 73%
    05:00 +12°C° 0 mm 2 mps 583 mmHg 73%
    06:00 +14°C° 0 mm 1 mps 585 mmHg 67%
    07:00 +16°C° 0 mm 1 mps 586 mmHg 61%
    08:00 +17°C° 0 mm 0 mps 588 mmHg 54%
    09:00 +20°C° 0 mm 1 mps 588 mmHg 53%
    10:00 +21°C° 0 mm 2 mps 588 mmHg 51%
    11:00 +23°C° 0 mm 2 mps 588 mmHg 49%
    12:00 +21°C° 0 mm 3 mps 588 mmHg 52%
    13:00 +21°C° 0 mm 3 mps 587 mmHg 55%
    14:00 +21°C° 0 mm 3 mps 586 mmHg 58%
    15:00 +19°C° 0 mm 2 mps 586 mmHg 70%
    16:00 +18°C° 0 mm 1 mps 585 mmHg 81%
    17:00 +15°C° 0 mm 1 mps 584 mmHg 93%
    18:00 +14°C° 0 mm 1 mps 584 mmHg 91%
    19:00 +14°C° 0 mm 1 mps 585 mmHg 89%
    20:00 +13°C° 0 mm 1 mps 585 mmHg 87%
    21:00 +13°C° 0 mm 1 mps 585 mmHg 83%
    22:00 +13°C° 0 mm 1 mps 585 mmHg 80%
    23:00 +13°C° 0 mm 1 mps 585 mmHg 76%

    28 November, Thursday

    Time Temperature Precipitation Wind Pressure Humidity
    00:00 +12°C° 0 mm 1 mps 585 mmHg 76%
    01:00 +12°C° 0 mm 1 mps 585 mmHg 75%
    02:00 +12°C° 0 mm 1 mps 584 mmHg 75%
    03:00 +11°C° 0 mm 1 mps 584 mmHg 75%
    04:00 +11°C° 0 mm 1 mps 584 mmHg 76%
    05:00 +11°C° 0 mm 1 mps 585 mmHg 76%
    06:00 +13°C° 0 mm 1 mps 586 mmHg 70%
    07:00 +15°C° 0 mm 1 mps 587 mmHg 65%
    08:00 +18°C° 0 mm 1 mps 589 mmHg 59%
    09:00 +19°C° 0 mm 1 mps 589 mmHg 57%
    10:00 +19°C° 0 mm 2 mps 589 mmHg 56%
    11:00 +20°C° 0 mm 3 mps 589 mmHg 54%
    12:00 +20°C° 0 mm 3 mps 588 mmHg 58%
    13:00 +19°C° 0 mm 3 mps 588 mmHg 63%
    14:00 +19°C° 0 mm 3 mps 587 mmHg 68%
    15:00 +17°C° 0.1 mm 2 mps 586 mmHg 76%
    16:00 +16°C° 0.1 mm 2 mps 586 mmHg 85%
    17:00 +14°C° 0.1 mm 1 mps 585 mmHg 94%
    18:00 +14°C° 0 mm 1 mps 586 mmHg 94%
    19:00 +13°C° 0 mm 1 mps 586 mmHg 94%
    20:00 +13°C° 0 mm 1 mps 586 mmHg 94%
    21:00 +13°C° 0 mm 1 mps 586 mmHg 94%
    22:00 +11°C° 0 mm 0 mps 586 mmHg 93%
    23:00 +11°C° 0 mm 0 mps 586 mmHg 93%
    Show more